Regional Weather Roundup
Issued by NWS Jackson, KY

Home | Current Version | Previous Version | Graphics & Text | Print | Product List | Glossary On
Versions: 1 2 3 4 5 6 7 8 9 10 11 12 13 14 15 16 17 18 19 20 21 22 23 24 25 26 27 28
000
ASUS43 KJKL 190710
RWRJKL

EAST KENTUCKY HOURLY WEATHER ROUNDUP
NATIONAL WEATHER SERVICE JACKSON KY
300 AM EDT TUE SEP 19 2017

NOTE: "FAIR" INDICATES FEW OR NO CLOUDS BELOW 12,000 FEET WITH
NO SIGNIFICANT WEATHER AND/OR OBSTRUCTIONS TO VISIBILITY.

* THESE REPORTS ARE NOT UNDER NWS QUALITY CONTROL AND MAY NOT
  REPORT WEATHER SUCH AS PRECIPITATION AND FOG.

KYZ079-080-083-085-087-088-110-112-115-119-120-190800
...EASTERN KENTUCKY...

CITY           SKY/WX    TMP DP  RH WIND       PRES   REMARKS
JACKSON        CLEAR     65  60  84 CALM      30.03F
LONDON         CLOUDY    66  63  90 CALM      30.02F
SOMERSET*      CLOUDY    63  63 100 CALM      30.02S FOG
MONTICELLO*    CLEAR     61  61 100 W8        30.03S FOG
WILLIAMSBURG*  CLOUDY    64  64 100 SE3       30.02S
MIDDLESBORO*   CLOUDY    63  63 100 CALM      30.05S FOG
HARLAN APT*    CLOUDY    61  59  94 CALM      30.06F
PIKE CO APT*     N/A     63  63 100 CALM      30.03F
BIG SANDY APT* SUNNY     63  63 100 W3        30.03F
MOREHEAD APT*  PTSUNNY   66  63  88 CALM      30.03F
$$

KYZ035-036-041-042-044-050-067-078-099-190800
...CENTRAL KENTUCKY...

CITY           SKY/WX    TMP DP  RH WIND       PRES   REMARKS
MT STERLING*   CLOUDY    70  63  78 S6        30.02F
FLEMING/MASON* CLOUDY    67  64  89 SE5       30.02S
DANVILLE*      PTCLDY    68  64  88 CALM      30.02S
LEXINGTON      CLOUDY    71  66  84 SE6       30.00F
FRANKFORT      CLOUDY    73  65  75 S3        29.98F
LOUISVILLE     CLOUDY    73  70  90 SE5       29.96F
LEBANON*         N/A     72  66  83 SE6       29.99F
GLASGOW*       PTCLDY   N/A N/A N/A CALM      29.98S FOG
BOWLING GREEN  FOG       66  66 100 CALM      29.97F VSB 1/4
$$

KYZ091>093-OHZ055-061-077-WVZ005-015-034-035-042-190800
...SOUTHERN OHIO/WEST VIRGINIA...

CITY           SKY/WX    TMP DP  RH WIND       PRES   REMARKS
COVINGTON      CLOUDY    70  66  87 S5        29.98F
COLUMBUS       CLOUDY    70  66  87 SE5       30.00F
DAYTON         CLOUDY    67  66  97 E3        30.00F FOG
WILMINGTON     CLOUDY    68  67  96 SE3       30.00F
HUNTINGTON     FOG       65  63  93 CALM      30.00F VSB 1
CHARLESTON     FOG       62  60  93 CALM      30.01F VSB 1
PINEVILLE*     CLEAR     61  59  94 MISG      30.10F FOG
BECKLEY        CLEAR     59  58  96 CALM      30.08F
BLUEFIELD      PTCLDY    63  58  83 SE3       30.10F
LOGAN CO APT*  FOG       63  63 100 CALM      30.03F VSB 3/4
$$

VAZ002-007-008-TNZ017-027-036-066-071-190800
...SOUTHWEST VIRGINIA/EAST TENNESSEE...

CITY           SKY/WX    TMP DP  RH WIND       PRES   REMARKS
WISE*          CLEAR     61  55  82 CALM      30.10F
JONESVILLE*      N/A     57  57 100 CALM      30.06F FOG
ABINGDON*      CLEAR     61  59  94 E3        30.07S
BRISTOL        CLEAR     57  57 100 CALM      30.05S FOG
MORRISTOWN*    SUNNY     64  61  88 CALM      30.01F
SEVIERVILLE*   SUNNY     61  59  94 CALM      30.01S
KNOXVILLE      CLEAR     67  63  87 CALM      30.00F
LAFOLLETTE*    MOSUNNY   63  61  94 CALM      30.06S FOG
OAK RIDGE      CLEAR     66  64  93 CALM      30.03S
CROSSVILLE     CLEAR     62  60  93 CALM      30.06F
NASHVILLE      PTCLDY    69  66  90 CALM      29.99F
$$

...KEY TO REMARKS...
VSB - VISIBILITY IN MILES
WCI - WIND CHILL INDEX
HX  - HEAT INDEX

$$




USA.gov is the U.S. government's official web portal to all federal, state and local government web resources and services.